STARLINK-11138, 59949

Orbit data source: Space-Track

STARLINK-11138, 59949 is a payload satellite owned by SpaceX/Seattle (US) in LEO that was launched on Wed, 05 Jun 2024 UTC via an FALCON 9 launch vehicle from the Air Force Eastern Test Range (AFETR). Payload-class satellites include a variety of spacecraft equipped with specific instruments for various scientific and technological missions. These include communications satellites like Starlink; space stations such as the ISS; scientific satellites like the Hubble; Earth observation satellites from companies like Planet Labs, Umbra, and HawkEye 360; GPS; miniature CubeSats for education and research; and military/defense satellites.

Loading next visibility...
Identifier
59949, 2024-107E
Orbit
LEO
Country
Flag of USUS
Related business
Manufacturer
SpaceX/Seattle
Mission
Operational spacecraft
Bus & Motor
STARLINK V2MD, Unknown motor
Mass
960 kg wet, ~910 kg dry
Launch date (UTC)
2024-06-05 (1 year ago)
Launch vehicle
FALCON 9
Launch site
Air Force Eastern Test Range (AFETR)
Object type
Payload
Rocket body
Debris
Shape & HBR
Unknown
Radar Cross Section
Large (>1 m²)

Expand to show TLE details & history
Last TLE update: 1 day ago

TLE from 1 day ago
0 STARLINK-11138
1 59949U 24107E   25260.61923857  .00002763  00000-0  27649-4 0  9996
2 59949  53.1582  24.4082 0001142  87.9011 272.2138 15.69713499 75029
Epoch: 2025-09-17T14:51Z
TLE epoch observation values (Epoch: 2025-09-17T14:51:42.212Z)
Latitude
0.00001°
Longitude
164.68973°
Altitude
360.602 km
Speed
7.694 km/s
True Right ascension
01h 37m 37s
True Declination
0° 00' 00"
Sunlit
Object was in full shadow at epoch
Visualization orbit readout
Latitude
Unknown
Longitude
Unknown
Altitude
Unknown
Speed
Unknown
Apparent Right ascension
Unknown
Apparent Declination
Unknown
Sunlit
N/A
Visualization observer readout
Local Sidereal Time
13:53:35
Azimuth
Unknown
Elevation
Unknown
Doppler factor
Unknown
Orbital elements
Apogee altitude
360.747 km
Perigee altitude
359.208 km
Semi-major axis
6,738.115 km
Eccentricity
0.00011
Inclination
53.1582°
RAAN
24.4082°
Arg. of periapsis
87.9011°
True anomaly
272.20072°
Mean anomaly
272.2138°
Eccentric anomaly
272.20726°
Mean motion
3.92406 °/min
Orbital period
91.74 mins
BSTAR
0.000027649
Loading maneuver chart data...
Computing Atmospheric mass density...
Loading historical data...
Loading historical data...
Loading historical data...
Loading historical data...
Loading historical data...
Loading historical data...
Loading historical data...

Documentation

Showing up to 5 results
|